N737NK KBHM-KGYR

Flight info

Callsign N737NK
Flight time 3h 59m
Altitude 38000
Route JOEYE IGB SQS J52 TXK SPS J166 TCS J65 PXR
Aircraft A21N/M-SDE3FGHIRWY/LB1

Departure

Time 2026-05-05 20:58
Airport Birmingham-Shuttlesworth International Airport (KBHM)

Arrival

Time 2026-05-06 00:58
Airport Phoenix Goodyear Airport (KGYR)
Time Latitude Longitude Altitude Speed Heading
2026-05-05 20:37 33.55841 -86.75420 608 ft 0 kts 31°
2026-05-05 20:53 33.55843 -86.75419 608 ft 1 kts 30°
2026-05-05 20:53 33.55857 -86.75424 608 ft 2 kts 316°
2026-05-05 20:53 33.55855 -86.75465 622 ft 10 kts 261°
2026-05-05 20:53 33.55845 -86.75570 614 ft 14 kts 270°
2026-05-05 20:54 33.55849 -86.75698 613 ft 16 kts 272°
2026-05-05 20:54 33.55866 -86.75828 620 ft 12 kts 319°
2026-05-05 20:54 33.55945 -86.75834 620 ft 14 kts 358°
2026-05-05 20:54 33.56043 -86.75874 621 ft 13 kts 330°
2026-05-05 20:55 33.56123 -86.75839 615 ft 16 kts 50°
2026-05-05 20:55 33.56206 -86.75694 626 ft 24 kts 56°
2026-05-05 20:55 33.56308 -86.75519 619 ft 27 kts 56°
2026-05-05 20:55 33.56415 -86.75327 615 ft 29 kts 56°
2026-05-05 20:56 33.56527 -86.75136 618 ft 28 kts 55°
2026-05-05 20:56 33.56615 -86.74933 608 ft 27 kts 80°
2026-05-05 20:56 33.56670 -86.74734 609 ft 25 kts 57°
2026-05-05 20:56 33.56773 -86.74559 610 ft 27 kts 54°
2026-05-05 20:57 33.56879 -86.74389 612 ft 18 kts 46°
2026-05-05 20:57 33.56956 -86.74257 622 ft 21 kts 56°
2026-05-05 20:57 33.57048 -86.74171 615 ft 18 kts 351°
2026-05-05 20:57 33.57130 -86.74262 606 ft 16 kts 281°
2026-05-05 20:58 33.57075 -86.74390 624 ft 25 kts 236°
2026-05-05 20:58 33.56800 -86.74860 625 ft 111 kts 235°
2026-05-05 20:58 33.56236 -86.75826 768 ft 159 kts 233°
2026-05-05 20:58 33.55587 -86.76941 1481 ft 172 kts 232°
2026-05-05 20:59 33.54889 -86.78160 2154 ft 184 kts 231°
2026-05-05 20:59 33.54112 -86.79487 2477 ft 205 kts 231°
2026-05-05 20:59 33.53234 -86.80977 2774 ft 234 kts 235°
2026-05-05 20:59 33.52731 -86.82936 3390 ft 258 kts 261°
2026-05-05 21:00 33.52587 -86.85096 4387 ft 261 kts 262°
2026-05-05 21:00 33.52445 -86.87269 5457 ft 262 kts 261°
2026-05-05 21:00 33.52303 -86.89441 6561 ft 260 kts 262°
2026-05-05 21:00 33.52164 -86.91583 7642 ft 256 kts 262°
2026-05-05 21:01 33.52029 -86.93689 8587 ft 259 kts 263°
2026-05-05 21:01 33.51890 -86.95857 9461 ft 264 kts 264°
2026-05-05 21:01 33.51748 -86.98062 9828 ft 266 kts 264°
2026-05-05 21:01 33.51605 -87.00262 9928 ft 264 kts 264°
2026-05-05 21:02 33.51460 -87.02451 9953 ft 264 kts 264°
2026-05-05 21:02 33.51299 -87.04790 9963 ft 299 kts 264°
2026-05-05 21:02 33.51120 -87.07359 10003 ft 318 kts 264°
2026-05-05 21:02 33.50942 -87.10025 10718 ft 323 kts 264°
2026-05-05 21:03 33.50761 -87.12717 11609 ft 325 kts 265°
2026-05-05 21:03 33.50581 -87.15388 12503 ft 327 kts 265°
2026-05-05 21:03 33.50397 -87.18117 13378 ft 330 kts 265°
2026-05-05 21:03 33.50209 -87.20875 14201 ft 333 kts 265°
2026-05-05 21:04 33.50020 -87.23650 14999 ft 336 kts 266°
2026-05-05 21:04 33.49826 -87.26448 15788 ft 339 kts 266°
2026-05-05 21:04 33.49631 -87.29271 16571 ft 342 kts 267°
2026-05-05 21:04 33.49436 -87.32120 17354 ft 345 kts 268°
2026-05-05 21:05 33.49249 -87.34995 18085 ft 348 kts 269°
2026-05-05 21:05 33.49160 -87.37863 18718 ft 351 kts 271°
2026-05-05 21:05 33.49149 -87.40795 19368 ft 353 kts 272°
2026-05-05 21:05 33.49172 -87.43752 20008 ft 357 kts 273°
2026-05-05 21:06 33.49204 -87.46737 20666 ft 360 kts 272°
2026-05-05 21:06 33.49228 -87.49749 21309 ft 363 kts 272°
2026-05-05 21:06 33.49238 -87.52789 21927 ft 367 kts 272°
2026-05-05 21:06 33.49236 -87.55854 22521 ft 370 kts 271°
2026-05-05 21:07 33.49224 -87.58949 23098 ft 373 kts 271°
2026-05-05 21:07 33.49209 -87.62071 23638 ft 376 kts 271°
2026-05-05 21:07 33.49194 -87.65179 24116 ft 379 kts 271°
2026-05-05 21:07 33.49178 -87.68340 24640 ft 380 kts 271°
2026-05-05 21:08 33.49161 -87.71511 25164 ft 381 kts 272°
2026-05-05 21:08 33.49146 -87.74689 25704 ft 382 kts 272°
2026-05-05 21:08 33.49132 -87.77870 26254 ft 382 kts 272°
2026-05-05 21:08 33.49118 -87.81058 26783 ft 383 kts 272°
2026-05-05 21:09 33.49104 -87.84252 27300 ft 384 kts 273°
2026-05-05 21:09 33.49089 -87.87455 27788 ft 385 kts 273°
2026-05-05 21:09 33.49072 -87.90669 28276 ft 386 kts 273°
2026-05-05 21:09 33.49055 -87.93892 28773 ft 387 kts 274°
2026-05-05 21:10 33.49035 -87.97078 29256 ft 389 kts 274°
2026-05-05 21:10 33.49011 -88.00322 29741 ft 390 kts 274°
2026-05-05 21:10 33.48985 -88.03576 30166 ft 391 kts 274°
2026-05-05 21:10 33.48959 -88.06830 30664 ft 389 kts 274°
2026-05-05 21:11 33.48931 -88.10059 31209 ft 386 kts 274°
2026-05-05 21:11 33.48902 -88.13261 31738 ft 383 kts 274°
2026-05-05 21:11 33.48874 -88.16443 32273 ft 380 kts 274°
2026-05-05 21:11 33.48850 -88.19592 32803 ft 377 kts 274°
2026-05-05 21:12 33.48827 -88.22723 33343 ft 375 kts 274°
2026-05-05 21:12 33.48802 -88.25795 33868 ft 372 kts 274°
2026-05-05 21:12 33.48775 -88.28878 34326 ft 370 kts 274°
2026-05-05 21:12 33.48745 -88.31952 34789 ft 367 kts 274°
2026-05-05 21:13 33.48714 -88.34995 35251 ft 364 kts 274°
2026-05-05 21:13 33.48686 -88.38016 35721 ft 361 kts 274°
2026-05-05 21:13 33.48654 -88.41007 36232 ft 358 kts 274°
2026-05-05 21:13 33.48622 -88.43981 36695 ft 356 kts 274°
2026-05-05 21:14 33.48589 -88.46941 37139 ft 353 kts 274°
2026-05-05 21:14 33.48558 -88.49873 37583 ft 351 kts 274°
2026-05-05 21:14 33.48532 -88.52748 37903 ft 350 kts 274°
2026-05-05 21:14 33.48512 -88.55647 37959 ft 344 kts 274°
2026-05-05 21:15 33.48484 -88.61319 37962 ft 339 kts 274°
2026-05-05 21:15 33.48456 -88.66959 37962 ft 338 kts 274°
2026-05-05 21:16 33.48417 -88.72598 37937 ft 338 kts 274°
2026-05-05 21:16 33.48380 -88.78190 37934 ft 338 kts 274°
2026-05-05 21:17 33.48343 -88.83824 37938 ft 338 kts 274°
2026-05-05 21:17 33.48298 -88.89468 37929 ft 339 kts 273°
2026-05-05 21:18 33.48251 -88.95085 37934 ft 339 kts 273°
2026-05-05 21:18 33.48203 -89.00737 37940 ft 340 kts 273°
2026-05-05 21:19 33.48153 -89.06403 37951 ft 340 kts 273°
2026-05-05 21:19 33.48097 -89.12074 37946 ft 340 kts 273°
2026-05-05 21:20 33.48030 -89.17701 37950 ft 340 kts 273°
2026-05-05 21:20 33.47966 -89.23368 37949 ft 340 kts 273°
2026-05-05 21:21 33.47903 -89.29032 37947 ft 340 kts 273°
2026-05-05 21:21 33.47838 -89.34691 37947 ft 340 kts 272°
2026-05-05 21:22 33.47767 -89.40349 37939 ft 340 kts 272°
2026-05-05 21:22 33.47699 -89.45968 37939 ft 339 kts 272°
2026-05-05 21:23 33.47628 -89.51617 37939 ft 339 kts 272°
2026-05-05 21:23 33.47553 -89.57263 37933 ft 339 kts 272°
2026-05-05 21:24 33.47474 -89.62908 37932 ft 339 kts 272°
2026-05-05 21:24 33.47392 -89.68516 37930 ft 339 kts 272°
2026-05-05 21:25 33.47304 -89.74169 37927 ft 340 kts 272°
2026-05-05 21:25 33.47219 -89.79822 37926 ft 339 kts 272°
2026-05-05 21:26 33.47133 -89.85475 37926 ft 339 kts 272°
2026-05-05 21:26 33.47043 -89.91084 37927 ft 340 kts 272°
2026-05-05 21:27 33.46949 -89.96740 37928 ft 340 kts 272°
2026-05-05 21:27 33.46856 -90.02392 37935 ft 339 kts 272°
2026-05-05 21:28 33.46755 -90.08041 37942 ft 339 kts 272°
2026-05-05 21:28 33.46653 -90.13652 37932 ft 339 kts 272°
2026-05-05 21:29 33.46549 -90.19291 37938 ft 339 kts 272°
2026-05-05 21:29 33.46433 -90.24929 37937 ft 339 kts 272°
2026-05-05 21:30 33.46381 -90.30570 37933 ft 338 kts 274°
2026-05-05 21:30 33.46557 -90.36189 37925 ft 337 kts 275°
2026-05-05 21:31 33.46768 -90.41765 37913 ft 337 kts 274°
2026-05-05 21:31 33.46942 -90.47381 37907 ft 338 kts 274°
2026-05-05 21:32 33.47089 -90.53000 37905 ft 338 kts 274°
2026-05-05 21:32 33.47229 -90.58620 37905 ft 338 kts 274°
2026-05-05 21:33 33.47375 -90.64205 37900 ft 338 kts 274°
2026-05-05 21:33 33.47517 -90.69819 37901 ft 338 kts 274°
2026-05-05 21:34 33.47658 -90.75444 37898 ft 338 kts 274°
2026-05-05 21:34 33.47794 -90.81067 37906 ft 338 kts 274°
2026-05-05 21:35 33.47923 -90.86650 37896 ft 338 kts 274°
2026-05-05 21:35 33.48055 -90.92273 37897 ft 338 kts 274°
2026-05-05 21:36 33.48183 -90.97892 37896 ft 337 kts 274°
2026-05-05 21:36 33.48315 -91.03510 37887 ft 337 kts 274°
2026-05-05 21:37 33.48440 -91.09124 37886 ft 337 kts 273°
2026-05-05 21:37 33.48564 -91.14704 37870 ft 337 kts 273°
2026-05-05 21:38 33.48690 -91.20320 37874 ft 338 kts 273°
2026-05-05 21:38 33.48804 -91.25943 37877 ft 338 kts 273°
2026-05-05 21:39 33.48904 -91.31564 37880 ft 337 kts 273°
2026-05-05 21:39 33.49021 -91.37182 37876 ft 337 kts 273°
2026-05-05 21:40 33.49137 -91.42803 37860 ft 338 kts 273°
2026-05-05 21:40 33.49242 -91.48386 37860 ft 338 kts 273°
2026-05-05 21:41 33.49341 -91.54014 37856 ft 338 kts 272°
2026-05-05 21:41 33.49442 -91.59634 37860 ft 337 kts 272°
2026-05-05 21:42 33.49540 -91.65247 37860 ft 337 kts 272°
2026-05-05 21:42 33.49637 -91.70823 37859 ft 337 kts 272°
2026-05-05 21:43 33.49729 -91.76432 37858 ft 337 kts 272°
2026-05-05 21:43 33.49818 -91.82038 37858 ft 337 kts 272°
2026-05-05 21:44 33.49896 -91.86695 37857 ft 337 kts 272°
2026-05-05 21:44 33.50001 -91.93210 37874 ft 337 kts 272°
2026-05-05 21:45 33.50072 -91.97899 37866 ft 335 kts 272°
2026-05-05 21:45 33.50162 -92.04385 37851 ft 335 kts 272°
2026-05-05 21:46 33.50224 -92.09017 37847 ft 334 kts 272°
2026-05-05 21:46 33.50303 -92.14580 37843 ft 334 kts 272°
2026-05-05 21:47 33.50392 -92.21040 37850 ft 333 kts 272°
2026-05-05 21:47 33.50448 -92.25690 37849 ft 333 kts 272°
2026-05-05 21:48 33.50514 -92.31201 37824 ft 333 kts 272°
2026-05-05 21:48 33.50582 -92.36755 37823 ft 334 kts 272°
2026-05-05 21:49 33.50648 -92.42313 37821 ft 334 kts 272°
2026-05-05 21:49 33.50710 -92.47883 37814 ft 335 kts 272°
2026-05-05 21:50 33.50771 -92.53422 37819 ft 334 kts 272°
2026-05-05 21:50 33.50828 -92.58992 37812 ft 334 kts 271°
2026-05-05 21:51 33.50879 -92.64564 37801 ft 335 kts 271°
2026-05-05 21:51 33.50932 -92.70150 37793 ft 336 kts 271°
2026-05-05 21:52 33.51003 -92.78552 37794 ft 337 kts 271°
2026-05-05 21:53 33.51050 -92.84122 37822 ft 337 kts 271°
2026-05-05 21:53 33.51091 -92.89735 37820 ft 337 kts 271°
2026-05-05 21:54 33.51131 -92.95359 37818 ft 337 kts 271°
2026-05-05 21:54 33.51167 -93.00981 37818 ft 337 kts 271°
2026-05-05 21:55 33.51200 -93.06602 37803 ft 337 kts 271°
2026-05-05 21:55 33.51239 -93.12182 37814 ft 337 kts 271°
2026-05-05 21:56 33.51270 -93.17806 37812 ft 338 kts 271°
2026-05-05 21:56 33.51295 -93.23431 37808 ft 337 kts 271°
2026-05-05 21:57 33.51321 -93.29054 37812 ft 338 kts 271°
2026-05-05 21:57 33.51343 -93.34678 37813 ft 338 kts 271°
2026-05-05 21:58 33.51357 -93.40255 37810 ft 337 kts 271°
2026-05-05 21:58 33.51369 -93.45875 37811 ft 337 kts 271°
2026-05-05 21:59 33.51388 -93.51495 37810 ft 337 kts 271°
2026-05-05 21:59 33.51403 -93.57114 37811 ft 337 kts 271°
2026-05-05 22:00 33.51406 -93.62736 37810 ft 337 kts 270°
2026-05-05 22:00 33.51411 -93.68327 37819 ft 338 kts 271°
2026-05-05 22:01 33.51420 -93.73952 37818 ft 337 kts 270°
2026-05-05 22:01 33.51420 -93.79571 37802 ft 338 kts 270°
2026-05-05 22:02 33.51418 -93.85198 37811 ft 337 kts 270°
2026-05-05 22:02 33.51418 -93.90815 37805 ft 337 kts 270°
2026-05-05 22:03 33.51409 -93.96425 37802 ft 336 kts 270°
2026-05-05 22:03 33.51396 -94.01986 37803 ft 336 kts 270°
2026-05-05 22:04 33.51434 -94.07581 37795 ft 336 kts 275°
2026-05-05 22:04 33.52108 -94.13129 37797 ft 337 kts 276°
2026-05-05 22:05 33.52788 -94.18642 37800 ft 336 kts 276°
2026-05-05 22:05 33.53468 -94.24189 37782 ft 337 kts 276°
2026-05-05 22:06 33.54150 -94.29746 37779 ft 337 kts 276°
2026-05-05 22:06 33.54827 -94.35312 37769 ft 338 kts 276°
2026-05-05 22:07 33.55495 -94.40884 37774 ft 338 kts 276°
2026-05-05 22:07 33.56162 -94.46417 37770 ft 338 kts 276°
2026-05-05 22:08 33.56836 -94.51993 37766 ft 338 kts 276°
2026-05-05 22:08 33.57499 -94.57572 37776 ft 338 kts 276°
2026-05-05 22:09 33.58164 -94.63150 37780 ft 338 kts 276°
2026-05-05 22:09 33.58822 -94.68728 37764 ft 338 kts 276°
2026-05-05 22:10 33.59478 -94.74271 37785 ft 338 kts 276°
2026-05-05 22:10 33.60137 -94.79842 37783 ft 337 kts 275°
2026-05-05 22:11 33.60786 -94.85405 37779 ft 337 kts 275°
2026-05-05 22:11 33.61435 -94.90961 37774 ft 336 kts 275°
2026-05-05 22:12 33.62077 -94.96471 37788 ft 336 kts 275°
2026-05-05 22:12 33.62717 -95.02019 37782 ft 336 kts 275°
2026-05-05 22:13 33.63361 -95.07568 37777 ft 336 kts 275°
2026-05-05 22:13 33.64003 -95.13112 37777 ft 335 kts 275°
2026-05-05 22:14 33.64632 -95.18620 37783 ft 335 kts 275°
2026-05-05 22:14 33.65261 -95.24157 37782 ft 335 kts 275°
2026-05-05 22:15 33.65891 -95.29703 37786 ft 335 kts 275°
2026-05-05 22:15 33.66517 -95.35239 37782 ft 335 kts 274°
2026-05-05 22:16 33.67139 -95.40777 37786 ft 335 kts 274°
2026-05-05 22:16 33.67756 -95.46284 37786 ft 335 kts 274°
2026-05-05 22:17 33.68382 -95.51824 37786 ft 335 kts 274°
2026-05-05 22:17 33.68997 -95.57367 37784 ft 335 kts 274°
2026-05-05 22:18 33.69608 -95.62909 37762 ft 335 kts 274°
2026-05-05 22:18 33.70217 -95.68461 37763 ft 335 kts 274°
2026-05-05 22:19 33.70830 -95.73967 37765 ft 335 kts 274°
2026-05-05 22:19 33.71436 -95.79514 37765 ft 335 kts 274°
2026-05-05 22:20 33.72036 -95.85065 37760 ft 335 kts 274°
2026-05-05 22:20 33.72638 -95.90615 37761 ft 335 kts 274°
2026-05-05 22:21 33.73239 -95.96166 37766 ft 335 kts 274°
2026-05-05 22:21 33.73834 -96.01677 37765 ft 335 kts 274°
2026-05-05 22:22 33.74434 -96.07228 37768 ft 335 kts 274°
2026-05-05 22:22 33.75025 -96.12781 37781 ft 334 kts 273°
2026-05-05 22:23 33.75606 -96.18283 37785 ft 334 kts 273°
2026-05-05 22:23 33.76186 -96.23818 37789 ft 334 kts 273°
2026-05-05 22:24 33.76769 -96.29355 37794 ft 334 kts 273°
2026-05-05 22:24 33.77352 -96.34889 37796 ft 334 kts 273°
2026-05-05 22:25 33.77932 -96.40424 37797 ft 334 kts 273°
2026-05-05 22:25 33.78506 -96.45923 37836 ft 333 kts 273°
2026-05-05 22:26 33.79071 -96.51416 37794 ft 330 kts 273°
2026-05-05 22:26 33.79634 -96.56892 37773 ft 330 kts 272°
2026-05-05 22:27 33.80196 -96.62376 37770 ft 330 kts 273°
2026-05-05 22:27 33.80755 -96.67810 37770 ft 330 kts 272°
2026-05-05 22:28 33.81312 -96.73280 37773 ft 330 kts 272°
2026-05-05 22:28 33.81872 -96.78782 37778 ft 333 kts 272°
2026-05-05 22:29 33.82419 -96.84303 37799 ft 332 kts 272°
2026-05-05 22:29 33.82964 -96.89816 37797 ft 331 kts 272°
2026-05-05 22:30 33.83509 -96.95267 37797 ft 330 kts 272°
2026-05-05 22:30 33.84056 -97.00744 37796 ft 329 kts 272°
2026-05-05 22:31 33.84598 -97.06214 37792 ft 329 kts 272°
2026-05-05 22:31 33.85134 -97.11680 37790 ft 330 kts 272°
2026-05-05 22:32 33.85672 -97.17122 37791 ft 329 kts 272°
2026-05-05 22:32 33.86210 -97.22590 37789 ft 329 kts 272°
2026-05-05 22:33 33.86739 -97.28056 37788 ft 329 kts 272°
2026-05-05 22:33 33.87259 -97.33520 37792 ft 328 kts 272°
2026-05-05 22:34 33.87774 -97.38949 37793 ft 329 kts 272°
2026-05-05 22:34 33.88295 -97.44421 37795 ft 329 kts 272°
2026-05-05 22:35 33.88815 -97.49892 37797 ft 329 kts 272°
2026-05-05 22:35 33.89342 -97.55363 37796 ft 329 kts 272°
2026-05-05 22:36 33.89857 -97.60807 37796 ft 330 kts 271°
2026-05-05 22:36 33.90369 -97.66295 37797 ft 330 kts 271°
2026-05-05 22:37 33.90883 -97.71781 37804 ft 330 kts 272°
2026-05-05 22:37 33.91394 -97.77271 37807 ft 330 kts 272°
2026-05-05 22:38 33.91898 -97.82762 37803 ft 330 kts 271°
2026-05-05 22:38 33.92396 -97.88222 37806 ft 330 kts 271°
2026-05-05 22:39 33.92904 -97.93713 37818 ft 330 kts 272°
2026-05-05 22:39 33.93410 -97.99214 37819 ft 330 kts 271°
2026-05-05 22:40 33.93909 -98.04711 37818 ft 331 kts 271°
2026-05-05 22:40 33.94400 -98.10179 37817 ft 331 kts 271°
2026-05-05 22:41 33.94900 -98.15689 37825 ft 330 kts 271°
2026-05-05 22:41 33.95392 -98.21169 37827 ft 329 kts 271°
2026-05-05 22:42 33.95874 -98.26649 37827 ft 329 kts 271°
2026-05-05 22:42 33.96356 -98.32103 37825 ft 330 kts 271°
2026-05-05 22:43 33.96844 -98.37589 37833 ft 330 kts 271°
2026-05-05 22:43 33.97319 -98.43079 37835 ft 329 kts 271°
2026-05-05 22:44 33.97793 -98.48568 37875 ft 329 kts 271°
2026-05-05 22:44 33.98264 -98.54025 37868 ft 330 kts 271°
2026-05-05 22:45 33.98669 -98.59517 37871 ft 327 kts 265°
2026-05-05 22:45 33.98260 -98.64946 37857 ft 325 kts 262°
2026-05-05 22:46 33.97812 -98.70378 37852 ft 326 kts 262°
2026-05-05 22:46 33.97364 -98.75812 37857 ft 326 kts 262°
2026-05-05 22:47 33.96905 -98.81237 37836 ft 325 kts 262°
2026-05-05 22:47 33.96445 -98.86623 37830 ft 325 kts 262°
2026-05-05 22:48 33.95982 -98.92038 37817 ft 325 kts 262°
2026-05-05 22:48 33.95518 -98.97451 37814 ft 325 kts 262°
2026-05-05 22:49 33.95057 -99.02860 37813 ft 324 kts 262°
2026-05-05 22:49 33.94590 -99.08266 37812 ft 325 kts 262°
2026-05-05 22:50 33.94124 -99.13636 37813 ft 325 kts 262°
2026-05-05 22:50 33.93653 -99.19038 37811 ft 324 kts 262°
2026-05-05 22:51 33.93172 -99.24436 37810 ft 324 kts 262°
2026-05-05 22:51 33.92688 -99.29834 37810 ft 324 kts 262°
2026-05-05 22:52 33.92214 -99.35193 37810 ft 324 kts 262°
2026-05-05 22:52 33.91730 -99.40594 37811 ft 324 kts 262°
2026-05-05 22:53 33.91249 -99.45992 37811 ft 324 kts 262°
2026-05-05 22:53 33.90763 -99.51351 37816 ft 324 kts 262°
2026-05-05 22:54 33.90277 -99.56748 37818 ft 324 kts 262°
2026-05-05 22:54 33.89785 -99.62138 37816 ft 324 kts 261°
2026-05-05 22:55 33.89292 -99.67527 37813 ft 324 kts 262°
2026-05-05 22:55 33.88803 -99.72879 37816 ft 324 kts 261°
2026-05-05 22:56 33.88305 -99.78263 37813 ft 324 kts 261°
2026-05-05 22:56 33.87802 -99.83649 37836 ft 324 kts 261°
2026-05-05 22:57 33.87296 -99.89033 37831 ft 323 kts 261°
2026-05-05 22:57 33.86795 -99.94405 37824 ft 323 kts 261°
2026-05-05 22:58 33.86299 -99.99734 37822 ft 323 kts 261°
2026-05-05 22:58 33.85789 -100.05094 37819 ft 322 kts 261°
2026-05-05 22:59 33.85278 -100.10458 37819 ft 323 kts 261°
2026-05-05 22:59 33.84770 -100.15814 37813 ft 323 kts 261°
2026-05-05 23:00 33.84004 -100.23824 37819 ft 323 kts 261°
2026-05-05 23:00 33.83487 -100.29181 37818 ft 322 kts 261°
2026-05-05 23:01 33.82966 -100.34531 37817 ft 322 kts 261°
2026-05-05 23:01 33.82441 -100.39880 37816 ft 322 kts 261°
2026-05-05 23:02 33.81920 -100.45192 37819 ft 322 kts 261°
2026-05-05 23:02 33.81395 -100.50538 37818 ft 322 kts 261°
2026-05-05 23:03 33.80868 -100.55888 37821 ft 322 kts 261°
2026-05-05 23:03 33.80339 -100.61241 37801 ft 323 kts 260°
2026-05-05 23:04 33.79807 -100.66564 37800 ft 323 kts 260°
2026-05-05 23:04 33.79265 -100.71937 37803 ft 324 kts 260°
2026-05-05 23:05 33.78715 -100.77319 37803 ft 325 kts 260°
2026-05-05 23:05 33.78168 -100.82717 37806 ft 325 kts 260°
2026-05-05 23:06 33.77623 -100.88069 37797 ft 325 kts 260°
2026-05-05 23:06 33.77072 -100.93455 37797 ft 325 kts 260°
2026-05-05 23:07 33.76518 -100.98845 37803 ft 325 kts 260°
2026-05-05 23:07 33.75966 -101.04234 37789 ft 325 kts 260°
2026-05-05 23:08 33.75418 -101.09584 37787 ft 325 kts 260°
2026-05-05 23:08 33.74863 -101.14970 37787 ft 325 kts 260°
2026-05-05 23:09 33.74308 -101.20357 37793 ft 325 kts 259°
2026-05-05 23:09 33.73750 -101.25739 37792 ft 325 kts 259°
2026-05-05 23:10 33.73184 -101.31088 37881 ft 324 kts 259°
2026-05-05 23:10 33.72902 -101.33749 37770 ft 318 kts 258°
2026-05-05 23:10 33.72626 -101.36363 37764 ft 314 kts 258°
2026-05-05 23:11 33.72075 -101.41554 37763 ft 313 kts 258°
2026-05-05 23:11 33.71521 -101.46753 37769 ft 314 kts 258°
2026-05-05 23:12 33.70968 -101.51966 37794 ft 315 kts 258°
2026-05-05 23:12 33.70409 -101.57153 37815 ft 315 kts 258°
2026-05-05 23:13 33.69845 -101.62371 37830 ft 316 kts 258°
2026-05-05 23:13 33.69279 -101.67602 37849 ft 316 kts 258°
2026-05-05 23:14 33.68721 -101.72780 37863 ft 310 kts 257°
2026-05-05 23:14 33.68169 -101.77864 37860 ft 310 kts 257°
2026-05-05 23:15 33.67608 -101.82992 37848 ft 310 kts 257°
2026-05-05 23:15 33.67046 -101.88135 37861 ft 311 kts 257°
2026-05-05 23:16 33.66478 -101.93284 37853 ft 311 kts 257°
2026-05-05 23:16 33.65910 -101.98402 37837 ft 312 kts 257°
2026-05-05 23:17 33.65337 -102.03560 37821 ft 312 kts 257°
2026-05-05 23:17 33.64754 -102.08752 37764 ft 318 kts 257°
2026-05-05 23:18 33.64164 -102.14035 37757 ft 320 kts 258°
2026-05-05 23:18 33.63574 -102.19293 37826 ft 320 kts 258°
2026-05-05 23:19 33.62973 -102.24591 37851 ft 321 kts 257°
2026-05-05 23:19 33.62372 -102.29891 37875 ft 320 kts 257°
2026-05-05 23:20 33.61774 -102.35152 37879 ft 320 kts 258°
2026-05-05 23:20 33.61164 -102.40445 37877 ft 320 kts 257°
2026-05-05 23:21 33.60562 -102.45747 37858 ft 321 kts 257°
2026-05-05 23:21 33.59952 -102.51067 37834 ft 323 kts 257°
2026-05-05 23:22 33.59342 -102.56364 37825 ft 323 kts 257°
2026-05-05 23:22 33.58724 -102.61713 37802 ft 324 kts 257°
2026-05-05 23:23 33.58094 -102.67059 37777 ft 324 kts 257°
2026-05-05 23:23 33.57469 -102.72408 37756 ft 324 kts 257°
2026-05-05 23:24 33.56841 -102.77761 37743 ft 324 kts 257°
2026-05-05 23:24 33.56213 -102.83076 37726 ft 324 kts 257°
2026-05-05 23:25 33.55579 -102.88428 37723 ft 324 kts 257°
2026-05-05 23:25 33.54946 -102.93778 37722 ft 324 kts 257°
2026-05-05 23:26 33.54308 -102.99124 37720 ft 324 kts 257°
2026-05-05 23:26 33.53667 -103.04439 37719 ft 324 kts 257°
2026-05-05 23:27 33.53025 -103.09790 37720 ft 324 kts 257°
2026-05-05 23:27 33.52384 -103.15141 37737 ft 324 kts 257°
2026-05-05 23:28 33.51738 -103.20492 37736 ft 324 kts 257°
2026-05-05 23:28 33.51094 -103.25798 37730 ft 324 kts 257°
2026-05-05 23:29 33.50446 -103.31135 37731 ft 324 kts 257°
2026-05-05 23:29 33.49795 -103.36467 37730 ft 323 kts 257°
2026-05-05 23:30 33.49137 -103.41796 37726 ft 324 kts 257°
2026-05-05 23:30 33.48479 -103.47126 37733 ft 323 kts 257°
2026-05-05 23:31 33.47828 -103.52412 37733 ft 321 kts 257°
2026-05-05 23:31 33.47175 -103.57676 37726 ft 319 kts 257°
2026-05-05 23:32 33.46522 -103.62940 37725 ft 320 kts 257°
2026-05-05 23:32 33.45870 -103.68209 37725 ft 320 kts 257°
2026-05-05 23:33 33.45211 -103.73482 37723 ft 320 kts 257°
2026-05-05 23:33 33.44554 -103.78723 37727 ft 320 kts 257°
2026-05-05 23:34 33.43888 -103.83993 37727 ft 320 kts 257°
2026-05-05 23:34 33.43219 -103.89262 37744 ft 320 kts 257°
2026-05-05 23:35 33.42551 -103.94503 37729 ft 321 kts 257°
2026-05-05 23:35 33.41879 -103.99776 37723 ft 320 kts 257°
2026-05-05 23:36 33.41210 -104.05048 37721 ft 320 kts 257°
2026-05-05 23:36 33.40533 -104.10317 37715 ft 320 kts 257°
2026-05-05 23:37 33.39852 -104.15582 37698 ft 320 kts 256°
2026-05-05 23:37 33.39166 -104.20809 37739 ft 320 kts 257°
2026-05-05 23:38 33.38494 -104.26062 37754 ft 321 kts 257°
2026-05-05 23:38 33.37806 -104.31365 37791 ft 323 kts 256°
2026-05-05 23:39 33.37114 -104.36637 37822 ft 323 kts 256°
2026-05-05 23:39 33.36417 -104.41955 37850 ft 323 kts 256°
2026-05-05 23:40 33.35721 -104.47265 37871 ft 323 kts 256°
2026-05-05 23:40 33.35019 -104.52574 37869 ft 323 kts 256°
2026-05-05 23:41 33.34321 -104.57852 37866 ft 323 kts 256°
2026-05-05 23:41 33.33737 -104.63184 37868 ft 328 kts 262°
2026-05-05 23:42 33.33685 -104.68634 37903 ft 328 kts 262°
2026-05-05 23:42 33.33635 -104.74054 37811 ft 324 kts 262°
2026-05-05 23:43 33.33576 -104.79417 37782 ft 324 kts 262°
2026-05-05 23:43 33.33513 -104.84820 37762 ft 326 kts 262°
2026-05-05 23:44 33.33444 -104.90234 37734 ft 326 kts 262°
2026-05-05 23:44 33.33375 -104.95674 37695 ft 328 kts 262°
2026-05-05 23:45 33.33302 -105.01106 37696 ft 330 kts 262°
2026-05-05 23:45 33.33230 -105.06613 37704 ft 332 kts 262°
2026-05-05 23:46 33.33153 -105.12141 37738 ft 333 kts 262°
2026-05-05 23:46 33.33071 -105.17672 37781 ft 332 kts 262°
2026-05-05 23:47 33.32994 -105.23213 37848 ft 333 kts 262°
2026-05-05 23:47 33.32913 -105.28723 37889 ft 334 kts 262°
2026-05-05 23:48 33.32828 -105.34286 37920 ft 335 kts 261°
2026-05-05 23:48 33.32736 -105.39850 37955 ft 335 kts 261°
2026-05-05 23:49 33.32641 -105.45420 37980 ft 335 kts 261°
2026-05-05 23:49 33.32550 -105.50957 37993 ft 335 kts 262°
2026-05-05 23:50 33.32452 -105.56529 37987 ft 336 kts 261°
2026-05-05 23:50 33.32351 -105.62109 37974 ft 336 kts 261°
2026-05-05 23:51 33.32300 -105.64903 38088 ft 336 kts 261°
2026-05-05 23:51 33.32250 -105.67674 37962 ft 330 kts 261°
2026-05-05 23:51 33.32156 -105.73043 37930 ft 323 kts 261°
2026-05-05 23:52 33.32052 -105.78421 37904 ft 324 kts 261°
2026-05-05 23:52 33.31944 -105.83808 37878 ft 324 kts 261°
2026-05-05 23:53 33.31835 -105.89209 37847 ft 325 kts 261°
2026-05-05 23:53 33.31726 -105.94614 37821 ft 324 kts 261°
2026-05-05 23:54 33.31619 -105.99966 37842 ft 324 kts 260°
2026-05-05 23:54 33.31500 -106.05360 37829 ft 325 kts 260°
2026-05-05 23:55 33.31380 -106.10775 37810 ft 326 kts 260°
2026-05-05 23:55 33.31261 -106.16204 37810 ft 327 kts 260°
2026-05-05 23:56 33.31138 -106.21642 37793 ft 327 kts 260°
2026-05-05 23:56 33.31014 -106.27048 37796 ft 328 kts 260°
2026-05-05 23:57 33.30892 -106.32496 37802 ft 328 kts 260°
2026-05-05 23:57 33.30760 -106.37944 37746 ft 328 kts 259°
2026-05-05 23:58 33.30625 -106.43406 37753 ft 329 kts 259°
2026-05-05 23:58 33.30492 -106.48844 37756 ft 330 kts 259°
2026-05-05 23:59 33.30353 -106.54347 37744 ft 333 kts 260°
2026-05-05 23:59 33.30211 -106.59897 37767 ft 335 kts 259°
2026-05-06 00:00 33.30067 -106.65449 37776 ft 334 kts 259°
2026-05-06 00:00 33.29922 -106.70920 37783 ft 330 kts 259°
2026-05-06 00:01 33.29772 -106.76439 37780 ft 332 kts 259°
2026-05-06 00:01 33.29623 -106.81947 37765 ft 331 kts 259°
2026-05-06 00:02 33.29471 -106.87457 37766 ft 331 kts 259°
2026-05-06 00:02 33.29310 -106.92951 37796 ft 331 kts 259°
2026-05-06 00:03 33.29159 -106.98424 37825 ft 332 kts 259°
2026-05-06 00:03 33.29002 -107.03919 37861 ft 328 kts 259°
2026-05-06 00:04 33.28839 -107.09341 37869 ft 327 kts 259°
2026-05-06 00:04 33.28664 -107.14805 37899 ft 330 kts 259°
2026-05-06 00:05 33.28411 -107.23037 37925 ft 333 kts 259°
2026-05-06 00:06 33.28281 -107.28585 37938 ft 339 kts 263°
2026-05-06 00:06 33.28566 -107.34195 37938 ft 338 kts 263°
2026-05-06 00:07 33.28849 -107.39802 37914 ft 338 kts 263°
2026-05-06 00:07 33.29126 -107.45386 37881 ft 339 kts 263°
2026-05-06 00:08 33.29406 -107.51025 37861 ft 340 kts 263°
2026-05-06 00:08 33.29686 -107.56676 37839 ft 341 kts 263°
2026-05-06 00:09 33.29959 -107.62336 37822 ft 341 kts 263°
2026-05-06 00:09 33.30227 -107.67957 37799 ft 341 kts 263°
2026-05-06 00:10 33.30498 -107.73612 37796 ft 341 kts 263°
2026-05-06 00:10 33.30767 -107.79242 37803 ft 337 kts 263°
2026-05-06 00:11 33.31026 -107.84813 37801 ft 336 kts 263°
2026-05-06 00:11 33.31272 -107.90354 37810 ft 336 kts 263°
2026-05-06 00:12 33.31530 -107.95945 37816 ft 337 kts 263°
2026-05-06 00:12 33.31792 -108.01524 37820 ft 337 kts 263°
2026-05-06 00:13 33.32040 -108.07103 37826 ft 336 kts 263°
2026-05-06 00:13 33.32244 -108.11739 37827 ft 336 kts 263°
2026-05-06 00:14 33.32521 -108.18230 37834 ft 337 kts 263°
2026-05-06 00:14 33.32755 -108.23824 37835 ft 337 kts 263°
2026-05-06 00:15 33.32991 -108.29427 37831 ft 337 kts 263°
2026-05-06 00:15 33.33189 -108.34088 37833 ft 338 kts 263°
2026-05-06 00:16 33.33473 -108.40603 37829 ft 337 kts 263°
2026-05-06 00:16 33.33707 -108.46200 37851 ft 336 kts 263°
2026-05-06 00:17 33.33901 -108.50867 37844 ft 336 kts 263°
2026-05-06 00:17 33.34123 -108.56438 37837 ft 338 kts 263°
2026-05-06 00:18 33.34352 -108.62059 37838 ft 339 kts 263°
2026-05-06 00:18 33.34577 -108.67704 37845 ft 341 kts 263°
2026-05-06 00:19 33.34801 -108.73374 37842 ft 341 kts 263°
2026-05-06 00:19 33.35024 -108.78992 37872 ft 341 kts 263°
2026-05-06 00:20 33.35240 -108.84621 37834 ft 338 kts 263°
2026-05-06 00:20 33.35456 -108.90251 37827 ft 339 kts 263°
2026-05-06 00:21 33.35671 -108.95880 37843 ft 339 kts 263°
2026-05-06 00:21 33.35876 -109.01508 37842 ft 339 kts 263°
2026-05-06 00:22 33.36091 -109.07109 37842 ft 339 kts 263°
2026-05-06 00:22 33.36303 -109.12751 37860 ft 340 kts 263°
2026-05-06 00:23 33.36501 -109.18412 37849 ft 341 kts 263°
2026-05-06 00:23 33.36700 -109.24081 37848 ft 341 kts 263°
2026-05-06 00:24 33.36900 -109.29716 37836 ft 342 kts 263°
2026-05-06 00:24 33.37097 -109.35408 37833 ft 343 kts 263°
2026-05-06 00:25 33.37291 -109.41102 37839 ft 343 kts 263°
2026-05-06 00:25 33.37488 -109.46798 37870 ft 343 kts 263°
2026-05-06 00:26 33.37672 -109.52457 37855 ft 343 kts 263°
2026-05-06 00:26 33.37853 -109.58165 37857 ft 344 kts 263°
2026-05-06 00:27 33.38042 -109.63884 37857 ft 344 kts 263°
2026-05-06 00:27 33.38224 -109.69600 37865 ft 344 kts 263°
2026-05-06 00:28 33.38402 -109.75288 37862 ft 344 kts 263°
2026-05-06 00:28 33.38580 -109.81015 37866 ft 345 kts 263°
2026-05-06 00:29 33.38751 -109.86770 37847 ft 347 kts 263°
2026-05-06 00:29 33.38924 -109.92547 37849 ft 348 kts 264°
2026-05-06 00:30 33.39100 -109.98348 37864 ft 349 kts 264°
2026-05-06 00:30 33.39268 -110.04121 37867 ft 349 kts 264°
2026-05-06 00:31 33.39431 -110.09939 37866 ft 350 kts 264°
2026-05-06 00:31 33.39598 -110.15751 37887 ft 350 kts 264°
2026-05-06 00:32 33.39759 -110.21568 37869 ft 350 kts 264°
2026-05-06 00:32 33.39916 -110.27363 37864 ft 351 kts 263°
2026-05-06 00:33 33.40069 -110.33192 37861 ft 351 kts 263°
2026-05-06 00:33 33.40222 -110.39029 37854 ft 351 kts 264°
2026-05-06 00:34 33.40369 -110.44870 37855 ft 351 kts 263°
2026-05-06 00:34 33.40522 -110.50704 37845 ft 352 kts 264°
2026-05-06 00:35 33.40663 -110.56552 37214 ft 358 kts 263°
2026-05-06 00:35 33.40728 -110.59571 36174 ft 367 kts 264°
2026-05-06 00:35 33.40796 -110.62642 35287 ft 370 kts 263°
2026-05-06 00:35 33.40869 -110.65726 34490 ft 371 kts 263°
2026-05-06 00:36 33.40944 -110.68811 33667 ft 371 kts 263°
2026-05-06 00:36 33.41021 -110.71892 32707 ft 369 kts 263°
2026-05-06 00:36 33.41097 -110.74921 31824 ft 362 kts 263°
2026-05-06 00:36 33.41171 -110.77933 30987 ft 363 kts 263°
2026-05-06 00:37 33.41244 -110.80908 30407 ft 359 kts 263°
2026-05-06 00:37 33.41315 -110.83870 29858 ft 354 kts 262°
2026-05-06 00:37 33.41382 -110.86782 29237 ft 347 kts 262°
2026-05-06 00:37 33.41451 -110.89636 28690 ft 339 kts 262°
2026-05-06 00:38 33.41513 -110.92430 28113 ft 335 kts 262°
2026-05-06 00:38 33.41562 -110.95235 27523 ft 339 kts 263°
2026-05-06 00:38 33.41613 -110.98070 26901 ft 342 kts 263°
2026-05-06 00:38 33.41667 -111.00885 26309 ft 343 kts 263°
2026-05-06 00:39 33.41727 -111.03715 25682 ft 338 kts 264°
2026-05-06 00:39 33.41790 -111.06535 25074 ft 337 kts 264°
2026-05-06 00:39 33.41852 -111.09337 24468 ft 337 kts 264°
2026-05-06 00:39 33.41912 -111.12125 23976 ft 334 kts 264°
2026-05-06 00:40 33.41965 -111.14916 23486 ft 336 kts 265°
2026-05-06 00:40 33.42016 -111.17704 22773 ft 335 kts 265°
2026-05-06 00:40 33.42068 -111.20494 22019 ft 336 kts 265°
2026-05-06 00:40 33.42119 -111.23294 21304 ft 338 kts 266°
2026-05-06 00:41 33.42170 -111.26073 20607 ft 340 kts 267°
2026-05-06 00:41 33.42222 -111.28907 19899 ft 342 kts 267°
2026-05-06 00:41 33.42277 -111.31764 19219 ft 344 kts 268°
2026-05-06 00:41 33.42333 -111.34635 18551 ft 346 kts 268°
2026-05-06 00:42 33.42388 -111.37524 17864 ft 348 kts 269°
2026-05-06 00:42 33.42443 -111.40425 17284 ft 350 kts 269°
2026-05-06 00:42 33.42498 -111.43329 16638 ft 349 kts 269°
2026-05-06 00:42 33.42548 -111.46210 16210 ft 340 kts 268°
2026-05-06 00:43 33.42594 -111.48955 15862 ft 330 kts 268°
2026-05-06 00:43 33.42640 -111.51683 15336 ft 326 kts 268°
2026-05-06 00:43 33.42687 -111.54390 14790 ft 324 kts 268°
2026-05-06 00:43 33.42730 -111.57077 14300 ft 322 kts 268°
2026-05-06 00:44 33.42769 -111.59748 13784 ft 320 kts 268°
2026-05-06 00:44 33.42810 -111.62406 13431 ft 320 kts 268°
2026-05-06 00:44 33.42851 -111.65093 12560 ft 325 kts 268°
2026-05-06 00:44 33.42890 -111.67769 12117 ft 317 kts 268°
2026-05-06 00:45 33.42929 -111.70359 11599 ft 313 kts 269°
2026-05-06 00:45 33.42970 -111.72952 11040 ft 311 kts 269°
2026-05-06 00:45 33.43011 -111.75538 10578 ft 308 kts 269°
2026-05-06 00:45 33.43052 -111.78113 10436 ft 311 kts 269°
2026-05-06 00:46 33.43088 -111.80705 10302 ft 313 kts 269°
2026-05-06 00:46 33.43122 -111.83319 10163 ft 315 kts 269°
2026-05-06 00:46 33.43157 -111.85932 10019 ft 313 kts 269°
2026-05-06 00:46 33.43193 -111.88534 9562 ft 312 kts 269°
2026-05-06 00:47 33.43226 -111.91041 8722 ft 298 kts 269°
2026-05-06 00:47 33.43258 -111.93442 8165 ft 277 kts 269°
2026-05-06 00:47 33.43292 -111.95654 7988 ft 261 kts 269°
2026-05-06 00:47 33.43547 -111.97793 7819 ft 261 kts 287°
2026-05-06 00:48 33.44281 -111.99780 7631 ft 261 kts 294°
2026-05-06 00:48 33.45095 -112.01710 7372 ft 256 kts 294°
2026-05-06 00:48 33.45885 -112.03521 7048 ft 237 kts 295°
2026-05-06 00:48 33.46636 -112.05222 6622 ft 225 kts 294°
2026-05-06 00:49 33.47347 -112.06827 6237 ft 221 kts 294°
2026-05-06 00:49 33.48127 -112.08422 5790 ft 224 kts 305°
2026-05-06 00:49 33.49414 -112.09475 5335 ft 230 kts 339°
2026-05-06 00:49 33.51031 -112.09673 4906 ft 236 kts 356°
2026-05-06 00:50 33.52667 -112.09624 4470 ft 234 kts 359°
2026-05-06 00:50 33.54265 -112.09765 4025 ft 227 kts 338°
2026-05-06 00:50 33.55515 -112.10793 3600 ft 215 kts 303°
2026-05-06 00:50 33.56021 -112.12404 3180 ft 205 kts 271°
2026-05-06 00:51 33.55680 -112.14020 2903 ft 203 kts 246°
2026-05-06 00:51 33.55162 -112.15368 2993 ft 157 kts 245°
2026-05-06 00:51 33.54771 -112.16499 2935 ft 140 kts 254°
2026-05-06 00:51 33.54562 -112.17563 2899 ft 126 kts 256°
2026-05-06 00:52 33.54361 -112.18546 2804 ft 121 kts 251°
2026-05-06 00:52 33.54033 -112.19460 2707 ft 118 kts 241°
2026-05-06 00:52 33.53647 -112.20335 2596 ft 118 kts 243°
2026-05-06 00:52 33.53283 -112.21215 2629 ft 118 kts 245°
2026-05-06 00:53 33.52961 -112.22107 2715 ft 115 kts 248°
2026-05-06 00:53 33.52671 -112.23008 2609 ft 117 kts 248°
2026-05-06 00:53 33.52366 -112.23911 2495 ft 115 kts 241°
2026-05-06 00:53 33.51888 -112.24684 2365 ft 116 kts 234°
2026-05-06 00:54 33.51428 -112.25493 2271 ft 116 kts 243°
2026-05-06 00:54 33.51106 -112.26374 2395 ft 115 kts 247°
2026-05-06 00:54 33.50778 -112.27262 2401 ft 117 kts 245°
2026-05-06 00:54 33.50415 -112.28136 2297 ft 115 kts 238°
2026-05-06 00:55 33.49909 -112.28890 2160 ft 117 kts 231°
2026-05-06 00:55 33.49337 -112.29582 2032 ft 115 kts 225°
2026-05-06 00:55 33.48793 -112.30286 2086 ft 115 kts 231°
2026-05-06 00:55 33.48275 -112.31010 2067 ft 117 kts 232°
2026-05-06 00:56 33.47759 -112.31757 2054 ft 117 kts 232°
2026-05-06 00:56 33.47241 -112.32506 2070 ft 117 kts 232°
2026-05-06 00:56 33.46743 -112.33262 2033 ft 116 kts 232°
2026-05-06 00:56 33.46174 -112.33944 1967 ft 117 kts 221°
2026-05-06 00:57 33.45516 -112.34530 1819 ft 119 kts 220°
2026-05-06 00:57 33.44872 -112.35130 1667 ft 115 kts 222°
2026-05-06 00:57 33.44247 -112.35744 1441 ft 118 kts 216°
2026-05-06 00:57 33.43613 -112.36331 1263 ft 116 kts 221°
2026-05-06 00:58 33.42984 -112.36919 1042 ft 113 kts 220°
2026-05-06 00:58 33.42409 -112.37452 983 ft 89 kts 220°
2026-05-06 00:58 33.42141 -112.37710 957 ft 29 kts 218°
2026-05-06 00:58 33.41975 -112.37867 956 ft 24 kts 218°
2026-05-06 00:59 33.41866 -112.37927 957 ft 16 kts 161°
2026-05-06 00:59 33.41860 -112.37809 955 ft 19 kts 45°
2026-05-06 00:59 33.41891 -112.37777 957 ft 0 kts 38°
2026-05-06 01:11 33.41893 -112.37776 957 ft 2 kts 38°
2026-05-06 01:11 33.41958 -112.37716 953 ft 19 kts 37°
2026-05-06 01:12 33.42068 -112.37616 959 ft 20 kts 38°
2026-05-06 01:12 33.42182 -112.37508 963 ft 22 kts 38°
2026-05-06 01:12 33.42308 -112.37390 969 ft 23 kts 38°
2026-05-06 01:12 33.42439 -112.37267 968 ft 25 kts 38°
2026-05-06 01:13 33.42584 -112.37131 972 ft 27 kts 38°
2026-05-06 01:13 33.42710 -112.37013 968 ft 16 kts 38°
2026-05-06 01:13 33.42733 -112.36924 977 ft 9 kts 106°
2026-05-06 01:13 33.42757 -112.36869 976 ft 0 kts 39°